Wind_Speed
10 10 9 9 8 8 7 6 5 4 4 3 3 3 2 2 2 2 2 2 2 2 3 3 3 3 3 3 3 3 4 4 3 3 3 4 4 3 4 4 4 4 5
11 11 10 10 10 9 8 7 6 6 5 5 4 4 3 3 3 3 3 3 3 4 4 4 4 4 4 5 5 5 5 5 4 4 5 5 5 5 5 5 5 5 6
13 12 12 12 11 11 10 9 8 8 7 6 6 5 5 5 5 5 5 5 5 5 5 6 6 6 6 6 6 6 6 6 5 5 5 6 6 6 6 5 6 6 6
14 14 13 13 13 13 12 11 11 10 9 8 8 7 7 7 7 7 7 7 7 7 7 7 7 7 7 7 7 7 7 7 7 7 7 7 7 7 7 6 6 7 7
16 16 15 15 14 14 14 13 12 12 11 10 10 9 9 9 9 9 9 9 9 9 8 8 8 8 8 8 8 8 8 8 8 8 8 8 8 8 8 8 7 7 7
19 18 17 16 16 15 15 15 14 14 13 12 12 12 11 10 10 11 11 11 11 11 10 10 10 10 10 10 10 10 10 9 9 9 9 9 9 9 9 9 9 8 8
21 20 19 18 18 18 17 16 16 15 15 14 14 14 13 13 12 13 13 13 12 12 12 12 12 11 12 12 12 12 12 11 11 10 10 10 10 10 10 10 10 10 10
23 22 21 21 20 19 18 17 17 17 17 16 16 16 15 15 14 14 14 14 14 14 13 14 14 13 13 14 14 14 14 13 13 12 12 12 12 12 12 11 11 12 12
26 24 24 23 22 21 20 19 19 19 18 18 18 18 18 17 17 16 16 15 16 16 16 16 16 15 15 15 15 15 15 15 15 14 13 13 14 14 14 13 13 13 14
27 27 26 25 25 23 22 22 21 21 20 20 20 20 20 19 19 18 18 18 18 18 18 17 17 17 16 16 16 16 16 16 16 16 15 15 15 15 15 15 15 15 15
29 28 28 27 26 26 25 24 23 23 22 22 22 21 21 21 21 20 20 20 20 20 20 19 19 19 18 18 18 18 18 18 18 18 18 17 17 17 17 17 18 18 18
30 30 29 29 28 27 26 25 25 24 24 24 24 23 24 23 23 23 22 22 22 22 22 21 21 21 20 20 20 20 19 19 20 20 19 19 19 19 19 20 20 20 20
31 31 30 30 29 29 28 28 27 26 26 26 25 25 26 25 25 25 24 24 24 24 24 23 23 22 22 22 22 22 21 21 22 22 22 22 22 22 22 23 23 23 23
33 32 31 31 31 30 30 30 29 28 27 27 27 27 27 27 27 27 27 26 26 26 25 25 25 25 25 25 25 24 24 23 24 24 24 24 24 24 25 25 25 25 24
34 34 34 33 33 33 32 31 30 29 29 29 29 29 29 29 29 29 29 29 28 27 27 27 27 27 27 27 27 27 26 26 26 27 27 27 27 27 27 27 27 27 27
35 36 36 35 34 34 33 32 31 31 31 30 30 30 30 30 30 31 31 31 30 30 29 29 30 30 30 30 30 29 29 29 29 29 29 29 29 29 29 28 29 29 29
37 37 37 36 36 35 35 34 33 33 33 32 32 32 31 31 32 32 32 32 32 32 31 31 32 32 32 32 32 32 31 31 30 30 31 31 31 31 31 31 31 32 31
39 39 39 39 37 36 36 35 35 35 34 34 33 34 33 33 33 33 33 33 34 34 34 34 34 34 34 34 34 34 34 33 33 33 33 33 33 34 34 34 34 34 34
39 40 40 40 40 39 38 37 36 36 35 35 34 35 34 33 34 34 34 34 35 35 35 36 36 36 35 35 35 35 35 35 36 35 35 35 36 36 36 36 36 36 36
40 41 41 41 42 41 41 39 38 37 36 36 36 35 35 34 34 35 35 36 36 36 36 36 36 36 36 36 36 36 37 37 37 37 37 38 38 38 38 38 38 38 38
39 41 42 41 41 42 41 40 39 38 37 37 37 37 37 36 36 36 36 37 37 37 37 36 36 37 37 37 37 38 38 39 38 38 38 39 39 39 39 40 40 40 40
39 40 40 41 41 41 40 41 41 40 38 38 38 38 38 38 38 37 37 38 38 37 37 37 38 38 38 38 39 39 39 39 39 38 38 39 39 40 40 40 41 41 41
39 39 40 40 41 41 42 42 41 41 40 39 39 39 39 39 39 38 38 38 39 38 38 38 38 39 39 40 40 41 40 40 39 39 39 40 40 40 41 41 41 42 42
38 39 40 41 41 41 42 42 43 42 41 39 39 39 40 40 39 40 40 41 41 40 40 39 40 40 40 40 41 41 41 41 41 39 39 40 40 40 41 41 42 42 43
37 39 40 41 42 41 42 43 43 42 42 42 40 39 40 41 41 42 42 42 42 42 42 41 41 42 42 42 42 42 42 42 42 41 41 41 41 42 42 42 43 43 43
38 39 40 40 42 43 43 43 43 43 43 43 43 41 40 41 42 43 43 43 43 43 43 43 43 42 42 43 43 43 43 43 43 43 43 43 43 43 44 43 44 45 45
Wind_Direction
238 241 242 242 240 237 234 233 233 229 229 232 237 241 246 262 283 294 298 287 290 301 311 308 298 294 294 302 308 311 316 318 317 317 318 319 323 328 330 334 338 340 342
238 240 243 243 241 238 235 235 233 233 233 235 238 245 249 259 279 286 279 279 281 286 294 296 294 292 289 290 293 297 302 302 303 305 304 308 309 313 319 323 327 332 335
239 240 242 244 242 237 237 238 237 237 239 242 244 249 253 258 265 276 278 274 278 283 287 289 288 287 285 283 285 289 292 290 292 296 298 300 302 303 308 313 318 323 326
240 240 242 244 242 241 240 241 239 240 242 246 249 251 256 258 264 265 269 273 275 278 283 283 285 286 283 277 276 279 281 281 281 284 290 294 297 297 297 300 306 311 315
241 241 243 244 243 242 241 240 239 240 242 245 251 253 257 260 262 262 263 269 272 275 278 280 283 283 279 274 271 274 277 277 277 278 283 288 293 294 293 293 297 300 304
241 242 245 245 243 241 242 241 241 241 243 245 250 253 256 258 260 262 264 268 269 271 273 276 279 279 276 272 269 270 273 275 275 276 280 284 287 289 291 290 293 294 297
241 243 244 244 242 240 241 241 242 244 245 247 250 253 255 258 261 263 266 266 266 267 270 273 275 276 274 272 271 271 272 273 274 275 277 280 283 287 289 290 290 291 295
241 243 244 243 242 241 242 242 243 245 247 250 252 253 255 258 261 264 264 264 266 268 270 272 272 274 274 272 271 270 271 272 273 275 276 278 280 282 285 286 290 292 292
241 242 243 243 243 244 244 245 246 248 249 251 253 254 255 258 261 262 262 264 266 267 270 271 272 272 272 272 271 270 270 271 273 274 277 278 279 281 282 284 287 290 292
242 242 243 243 243 244 245 247 249 250 251 252 255 256 256 257 260 261 260 262 264 266 268 270 271 271 270 270 270 270 270 270 272 273 274 276 277 278 280 282 283 285 289
242 242 243 244 244 246 248 249 250 251 253 253 256 258 257 257 258 260 260 261 263 265 267 269 269 269 269 269 269 270 270 269 271 272 273 274 275 277 279 280 282 283 286
242 242 242 243 244 247 249 250 250 252 253 254 256 257 258 257 257 258 258 259 262 264 266 267 268 268 268 269 269 269 270 270 270 271 271 271 273 275 277 279 282 282 283
242 243 243 243 244 247 250 251 252 253 254 255 257 257 257 256 257 257 257 258 260 262 264 265 265 265 267 269 270 269 270 270 270 269 270 270 271 273 275 277 280 281 281
241 242 244 244 245 246 248 250 252 253 254 256 258 258 257 257 257 256 257 258 260 262 264 264 264 265 266 268 269 269 269 270 270 269 269 270 271 273 274 278 279 280 280
242 242 243 245 246 245 246 248 250 253 254 257 259 259 258 258 258 257 258 259 260 261 263 264 264 266 267 267 267 268 269 269 269 269 269 269 271 273 274 276 277 279 281
244 244 243 245 246 245 245 248 251 253 255 258 260 260 258 258 258 258 258 259 261 261 262 264 266 266 267 267 266 266 268 269 270 269 269 270 271 272 273 276 277 278 278
245 245 245 246 246 247 248 250 252 254 256 259 261 261 260 260 260 258 258 259 260 261 263 264 265 265 266 266 266 266 268 269 270 270 271 272 272 272 272 274 276 277 276
245 245 245 246 247 248 249 251 253 255 257 260 260 260 261 261 261 259 259 259 260 261 263 263 264 265 265 265 265 266 267 269 270 271 272 272 272 273 273 273 275 276 277
245 245 245 246 247 248 249 251 252 255 257 259 259 260 260 261 261 260 260 261 261 262 263 264 264 265 265 265 266 267 268 269 270 271 272 272 273 273 274 274 275 276 277
247 245 246 247 247 249 250 251 251 252 255 257 258 259 260 261 261 261 261 261 261 262 263 264 264 264 264 264 265 266 268 269 271 271 272 272 273 273 274 274 275 276 278
248 247 246 247 248 249 249 250 251 252 253 254 256 257 258 260 260 260 261 262 262 263 264 265 264 264 264 264 265 266 268 270 272 273 273 273 273 273 274 274 275 275 277
249 247 247 247 248 248 248 250 251 252 253 253 255 257 258 259 259 259 260 262 264 265 265 265 264 264 264 265 266 267 268 269 271 272 273 272 272 273 273 274 275 276 276
249 247 246 247 248 248 249 249 251 253 254 255 255 256 257 259 260 260 261 262 264 265 265 266 265 265 265 265 266 267 268 269 270 271 271 271 272 273 274 275 276 277 277
249 246 245 246 247 248 248 250 252 253 254 255 257 257 257 259 260 260 262 263 263 264 266 267 267 266 266 267 268 268 269 270 271 270 270 271 272 273 274 275 276 278 278
249 245 245 246 248 248 249 251 252 253 254 256 257 258 259 260 260 260 261 263 264 265 267 267 268 268 268 268 268 269 270 270 270 270 270 271 273 274 275 277 278 279 280
247 245 245 246 247 247 250 250 251 253 254 257 259 260 260 260 261 261 262 263 265 266 267 268 269 269 269 269 269 268 269 270 270 271 272 273 274 275 276 277 278 278 279
Height
5843 5844 5845 5846 5847 5848 5849 5850 5851 5852 5853 5853 5854 5855 5855 5856 5856 5857 5857 5858 5858 5859 5859 5859 5860 5860 5860 5860 5861 5861 5861 5861 5861 5861 5861 5861 5861 5861 5860 5860 5860 5860 5859
5842 5843 5843 5844 5845 5846 5848 5849 5849 5850 5851 5852 5853 5854 5854 5855 5856 5856 5857 5857 5857 5858 5858 5859 5859 5859 5859 5860 5860 5860 5860 5860 5860 5860 5860 5860 5860 5860 5860 5859 5859 5859 5859
5839 5840 5841 5842 5843 5845 5846 5847 5848 5849 5850 5851 5852 5852 5853 5854 5854 5855 5855 5856 5856 5857 5857 5857 5858 5858 5858 5858 5858 5859 5859 5859 5859 5859 5859 5859 5859 5859 5859 5859 5858 5858 5858
5837 5838 5839 5840 5841 5843 5844 5845 5846 5847 5848 5849 5850 5851 5851 5852 5853 5853 5854 5854 5855 5855 5855 5856 5856 5856 5856 5857 5857 5857 5857 5858 5858 5858 5858 5858 5858 5858 5858 5857 5857 5857 5857
5834 5835 5837 5838 5839 5840 5841 5842 5843 5845 5846 5847 5848 5848 5849 5850 5851 5851 5852 5853 5853 5853 5854 5854 5854 5854 5854 5855 5855 5855 5856 5856 5856 5856 5856 5856 5856 5856 5856 5856 5856 5855 5855
5830 5832 5834 5835 5836 5837 5838 5840 5841 5842 5843 5844 5845 5846 5847 5848 5848 5849 5850 5850 5850 5851 5851 5851 5852 5852 5852 5853 5853 5853 5854 5854 5854 5854 5854 5854 5854 5854 5854 5854 5854 5853 5853
5827 5828 5830 5831 5833 5834 5835 5837 5838 5839 5841 5842 5842 5843 5844 5845 5845 5846 5847 5847 5848 5848 5848 5849 5849 5849 5850 5850 5850 5851 5851 5851 5852 5852 5852 5852 5852 5852 5852 5851 5851 5851 5851
5822 5824 5826 5828 5829 5830 5832 5834 5835 5836 5837 5838 5839 5840 5841 5842 5842 5843 5843 5844 5845 5845 5845 5846 5846 5846 5847 5847 5847 5848 5848 5849 5849 5849 5849 5849 5849 5849 5849 5849 5849 5849 5849
5818 5820 5822 5824 5825 5826 5828 5830 5831 5832 5834 5835 5836 5836 5837 5838 5839 5839 5840 5841 5841 5842 5842 5842 5843 5843 5843 5843 5844 5844 5845 5845 5846 5846 5846 5846 5846 5846 5846 5846 5846 5846 5846
5812 5815 5817 5819 5820 5822 5824 5825 5827 5828 5829 5830 5831 5832 5833 5834 5835 5835 5836 5837 5837 5838 5838 5838 5839 5839 5839 5840 5840 5841 5841 5842 5842 5843 5843 5843 5843 5843 5843 5843 5843 5843 5843
5807 5809 5811 5813 5815 5817 5819 5820 5822 5823 5825 5826 5827 5828 5829 5829 5830 5831 5832 5832 5833 5834 5834 5834 5835 5835 5835 5836 5836 5837 5837 5838 5838 5839 5839 5839 5839 5839 5839 5839 5839 5839 5839
5801 5803 5806 5808 5810 5812 5814 5815 5817 5818 5819 5821 5822 5823 5823 5824 5825 5826 5827 5828 5828 5829 5829 5830 5830 5831 5831 5831 5832 5832 5833 5833 5834 5834 5835 5835 5835 5835 5835 5835 5835 5835 5834
5795 5797 5799 5802 5804 5806 5808 5810 5811 5813 5814 5815 5816 5817 5818 5818 5819 5820 5821 5822 5823 5823 5824 5824 5825 5826 5826 5826 5827 5827 5828 5828 5829 5829 5830 5830 5830 5831 5830 5830 5830 5830 5829
5788 5790 5792 5795 5798 5800 5802 5804 5806 5807 5808 5809 5810 5811 5811 5812 5813 5814 5815 5816 5817 5818 5818 5819 5819 5820 5821 5821 5822 5822 5823 5823 5823 5824 5824 5825 5825 5825 5825 5825 5824 5824 5824
5781 5784 5786 5789 5791 5793 5795 5797 5799 5800 5802 5803 5804 5804 5805 5805 5806 5807 5809 5809 5810 5811 5812 5813 5813 5814 5814 5815 5816 5816 5817 5817 5817 5818 5818 5819 5819 5819 5819 5819 5818 5818 5818
5774 5776 5779 5781 5783 5786 5788 5790 5792 5794 5795 5796 5796 5797 5797 5798 5799 5800 5801 5802 5803 5804 5805 5806 5806 5807 5808 5808 5809 5810 5810 5811 5811 5811 5812 5812 5812 5812 5812 5812 5811 5811 5811
5766 5769 5771 5773 5776 5779 5781 5783 5785 5786 5788 5789 5789 5789 5790 5791 5791 5792 5793 5795 5796 5797 5798 5798 5799 5800 5800 5801 5802 5803 5803 5804 5804 5804 5805 5805 5805 5805 5805 5804 5804 5804 5803
5757 5760 5763 5766 5768 5771 5773 5775 5777 5779 5780 5781 5782 5782 5782 5783 5783 5784 5785 5787 5788 5789 5790 5790 5791 5792 5793 5793 5794 5795 5796 5796 5796 5797 5797 5797 5797 5797 5797 5797 5796 5796 5796
5748 5751 5755 5758 5760 5762 5765 5767 5769 5771 5772 5773 5774 5774 5775 5775 5776 5777 5778 5779 5780 5781 5781 5782 5782 5783 5784 5785 5786 5787 5788 5788 5788 5788 5789 5788 5788 5788 5788 5788 5788 5787 5787
5738 5742 5745 5749 5751 5754 5756 5758 5760 5762 5763 5764 5765 5766 5767 5768 5768 5769 5770 5770 5771 5772 5772 5772 5773 5774 5775 5776 5777 5778 5779 5779 5779 5779 5779 5779 5779 5779 5778 5778 5778 5778 5778
5729 5732 5735 5739 5742 5745 5747 5750 5752 5753 5755 5756 5757 5758 5759 5760 5761 5761 5762 5763 5763 5764 5764 5764 5765 5765 5766 5767 5768 5769 5770 5770 5770 5770 5770 5769 5769 5769 5769 5769 5768 5768 5768
5719 5722 5725 5729 5732 5735 5738 5741 5743 5745 5746 5747 5748 5749 5750 5751 5752 5753 5754 5754 5755 5755 5755 5756 5756 5756 5757 5757 5758 5759 5760 5762 5761 5761 5760 5760 5759 5759 5759 5759 5758 5758 5758
5709 5713 5716 5719 5723 5726 5729 5731 5733 5736 5737 5738 5739 5740 5742 5743 5744 5744 5745 5746 5746 5747 5747 5747 5747 5747 5748 5748 5748 5749 5750 5751 5751 5751 5750 5749 5749 5749 5749 5748 5748 5748 5747
5700 5703 5706 5710 5713 5716 5719 5721 5724 5726 5729 5730 5731 5732 5733 5734 5734 5735 5736 5736 5737 5738 5738 5738 5738 5738 5738 5739 5739 5739 5739 5739 5740 5741 5741 5740 5739 5739 5738 5738 5737 5736 5736
5691 5694 5697 5701 5704 5707 5710 5712 5715 5717 5719 5721 5721 5722 5723 5724 5725 5726 5726 5727 5727 5728 5728 5728 5728 5729 5729 5729 5729 5729 5729 5729 5729 5729 5730 5730 5729 5729 5728 5727 5726 5726 5725
5682 5685 5688 5692 5695 5698 5701 5703 5705 5707 5709 5711 5712 5713 5714 5715 5716 5716 5717 5717 5717 5717 5718 5718 5718 5718 5718 5719 5719 5719 5718 5718 5718 5718 5719 5719 5719 5719 5718 5717 5716 5715 5714